Flag for U.S.A. Weather past 2 weeks in Chattanooga, Tennessee, U.S.A.

Now
52 °F

Broken clouds.


Feels Like: 48 °F
Forecast: 43 / 48 °F
Wind: 12 mph from North

Location: Lovell Field

Current Time: Mar 2, 2015 at 2:41:09 PM

Latest Report: Mar 2, 2015 at 1:53 PM


Visibility: 10 mi

Pressure: 30.35 "Hg

Humidity: 64%

Dew point: 40 °F

Location of ChattanoogaLocation

Historic Weather in Chattanooga — Graph

°F

Chattanooga temperature yesterday

Maximum temperature yesterday: 50 °F (at 2:53 PM)
Minimum temperature yesterday: 43 °F (at 2:53 AM)
Average temperature yesterday: 46 °F

Past Weeks' High & Low Weather Summary

 TemperatureHumidityPressure
High53 °F (Feb 28, 4:53 PM)100% (Feb 22, 4:53 AM)30.63 "Hg (Feb 22, 4:53 AM)
Low8 °F (Feb 19, 6:53 AM)24% (Feb 15, 5:53 PM)29.78 "Hg (Feb 16, 7:53 PM)
Average33 °F67%30.22 "Hg
* Reported Feb 15 12:53 PM — Mar 2 12:53 PM, Chattanooga, Weather by CustomWeather, © 2015

Note: Actual official high and low records may vary slightly from our data, if they occured in-between our weather recording intervals... More about our weather records

Advertising

Chattanooga weather history for previous 24 hours

 ConditionsComfort  
Time TempWeatherWind HumidityBarometerVisibility
12:53 PM
Mon, Mar 2
50 °FMore clouds than sun.12 mph66%30.38 "Hg10 mi
11:53 AM47 °FMore clouds than sun.13 mph74%30.41 "Hg10 mi
10:53 AM46 °FMostly cloudy.12 mph77%30.41 "Hg10 mi
9:53 AM45 °FCloudy.14 mph82%30.41 "Hg10 mi
8:53 AM45 °FCloudy.12 mph86%30.40 "Hg10 mi
7:53 AM46 °FCloudy.15 mph86%30.38 "Hg7 mi
6:53 AM47 °FFog.6 mph93%30.34 "Hg1 mi
5:53 AM47 °FLight rain. Fog.3 mph93%30.32 "Hg1 mi
4:53 AM46 °FFog.No wind96%30.31 "Hg1 mi
4:04 AM45 °FFog.No wind97%30.29 "Hg2 mi
3:53 AM46 °FFog.No wind96%30.29 "Hg2 mi
2:53 AM47 °FRain. Fog.No wind93%30.33 "Hg1 mi
1:53 AM47 °FFog.No wind90%30.32 "Hg2 mi
12:53 AM46 °FFog.3 mph96%30.32 "Hg3 mi
12:00 AM46 °FFog.No wind96%30.34 "Hg3 mi
10:53 PM
Sun, Mar 1
47 °FLight rain. Fog.3 mph90%30.36 "Hg2 mi
9:53 PM47 °FFog.No wind90%30.36 "Hg4 mi
8:53 PM47 °FFog.6 mph90%30.36 "Hg4 mi
7:53 PM48 °FFog.5 mph86%30.36 "Hg3 mi
6:53 PM48 °FFog.5 mph86%30.36 "Hg3 mi
5:53 PM48 °FOvercast.7 mph86%30.36 "Hg7 mi
4:53 PM49 °FOvercast.5 mph80%30.37 "Hg7 mi
3:53 PM49 °FOvercast.8 mph80%30.39 "Hg8 mi
2:53 PM50 °FOvercast.5 mph71%30.38 "Hg10 mi
Weather by CustomWeather, © 2015

See weather overviewHow to use our weather pages